DM1AS-13 Weather Reports


time (UTC)temp
C
wind
direction
speed
KPH
gust
KPH
rain 1hr
cm
rain 24hr
cm
rain mn
cm
humidity
%
barometer
mb
20260506230915 8 338 3.2 8.0 0.00 1.30 0.00 85 1011.2
20260506225936 9 315 4.8 8.0 0.00 1.32 0.00 85 1011.0
20260506224915 10 338 1.6 3.2 0.00 1.32 0.00 85 1010.8
20260506223916 10 338 3.2 4.8 0.00 1.32 0.00 85 1010.7
20260506222936 10 270 1.6 1.6 0.00 1.32 0.00 85 1010.6
20260506221916 10 338 3.2 4.8 0.00 1.32 0.00 84 1010.5
20260506220915 10 0 1.6 1.6 0.00 1.32 0.00 85 1010.4
20260506215916 11 135 4.8 9.7 0.00 1.32 1.32 85 1010.2
20260506214916 11 293 1.6 3.2 0.00 1.32 1.32 85 1010.3
20260506213916 11 0.0 1.6 0.00 1.32 1.32 85 1010.3
20260506212916 11 270 1.6 3.2 0.00 1.32 1.32 85 1010.4
20260506211916 11 90 1.6 3.2 0.00 1.32 1.32 86 1010.3
20260506210916 11 270 6.4 9.7 0.00 1.32 1.32 86 1010.4
20260506210008 11 0.0 0.0 0.00 1.32 1.32 86 1010.2
20260506205832 11 0.0 0.0 0.00 1.32 1.32 86 1010.2
20260506205716 11 315 1.6 1.6 0.00 1.32 1.32 86 1010.2
20260506204716 11 293 1.6 1.6 0.00 1.32 1.32 86 1010.1
20260506203716 11 293 1.6 3.2 0.00 1.32 1.32 86 1010.1
20260506202812 11 0.0 0.0 0.00 1.32 1.32 86 1010.1
20260506202650 11 0 3.2 3.2 0.00 1.32 1.32 86 1010.1
20260506202509 11 0.0 0.0 0.00 1.32 1.32 86 1010.1
20260506202335 11 0.0 0.0 0.00 1.32 1.32 86 1010.1
20260506202016 11 315 1.6 3.2 0.00 1.32 1.32 87 1010.0
20260506201112 11 270 6.4 9.7 0.00 1.32 1.32 87 1010.1
20260506200909 11 0.0 0.0 0.00 1.32 1.32 87 1010.0
20260506200733 11 0.0 0.0 0.00 1.32 1.32 87 1010.0
20260506200636 11 0.0 0.0 0.00 1.32 1.32 87 1010.0
20260506200433 11 293 4.8 4.8 0.00 1.32 1.32 87 1009.9
20260506195716 11 270 3.2 3.2 0.00 1.32 1.32 87 1009.9
20260506194716 11 270 1.6 1.6 0.00 1.32 1.32 87 1009.9
20260506193716 11 225 1.6 3.2 0.00 1.32 1.32 87 1009.8
20260506192736 11 0.0 1.6 0.00 1.32 1.32 87 1009.6
20260506191716 11 293 1.6 3.2 0.00 1.32 1.32 87 1009.7
20260506190736 11 0.0 0.0 0.00 1.32 1.32 87 1009.7
20260506185822 11 338 4.8 6.4 0.00 1.32 1.32 87 1009.6
20260506184916 11 293 4.8 6.4 0.00 1.32 1.32 87 1009.4
20260506183915 11 0.0 1.6 0.00 1.32 1.32 87 1009.5
20260506182916 11 338 1.6 4.8 0.00 1.32 1.32 87 1009.5
20260506181916 11 0.0 1.6 0.03 1.32 1.32 87 1009.3
20260506180915 11 225 1.6 1.6 0.03 1.32 1.32 87 1009.2
20260506175916 12 0.0 1.6 0.03 1.32 1.32 87 1009.0
20260506174916 12 293 1.6 3.2 0.03 1.32 1.32 87 1009.0
20260506173936 12 0.0 1.6 0.03 1.32 1.32 87 1008.8
20260506172915 12 293 3.2 6.4 0.03 1.32 1.32 87 1008.8
20260506171936 12 338 3.2 4.8 0.00 1.30 1.30 87 1008.8
20260506170916 12 270 3.2 6.4 0.00 1.30 1.30 86 1008.9
20260506165915 13 0.0 1.6 0.00 1.30 1.30 87 1008.8
20260506164915 13 293 1.6 1.6 0.00 1.30 1.30 87 1008.7
20260506163916 13 315 4.8 8.0 0.00 1.30 1.30 86 1008.6
20260506162917 13 248 1.6 4.8 0.00 1.30 1.30 87 1008.5
20260506161917 13 0.0 1.6 0.00 1.30 1.30 87 1008.8
20260506160917 12 0.0 1.6 0.00 1.30 1.30 87 1008.9
20260506155918 12 338 3.2 6.4 0.00 1.30 1.30 87 1009.0
20260506154917 13 315 1.6 1.6 0.00 1.30 1.30 88 1009.0
20260506153917 12 0.0 1.6 0.00 1.30 1.30 88 1009.0
20260506152938 13 315 1.6 1.6 0.00 1.30 1.30 88 1009.1
20260506151916 13 315 3.2 8.0 0.00 1.30 1.30 88 1009.0
20260506150917 13 0.0 1.6 0.00 1.30 1.30 89 1008.8
20260506145917 13 0.0 1.6 0.00 1.30 1.30 90 1008.8
20260506144917 13 248 1.6 3.2 0.00 1.30 1.30 90 1008.6
20260506143917 12 315 1.6 3.2 0.00 1.30 1.30 90 1008.6
20260506142917 12 0.0 3.2 0.00 1.30 1.30 90 1008.8
20260506141917 12 338 1.6 3.2 0.00 1.30 1.30 90 1008.8
20260506140917 12 315 1.6 3.2 0.00 1.30 1.30 90 1008.8
20260506135917 13 270 3.2 6.4 0.00 1.30 1.30 91 1008.7
20260506134917 12 293 1.6 3.2 0.00 1.30 1.30 92 1008.6
20260506133918 13 315 1.6 3.2 0.00 1.30 1.30 92 1008.6
20260506132917 12 0.0 1.6 0.00 1.30 1.30 93 1008.5
20260506131917 12 338 1.6 3.2 0.00 1.30 1.30 92 1008.5
20260506130917 12 0.0 1.6 0.00 1.30 1.30 93 1008.4
20260506125937 12 315 3.2 8.0 0.00 1.30 1.30 93 1008.5
20260506124917 12 293 1.6 3.2 0.00 1.30 1.30 93 1008.5
20260506123937 12 315 1.6 3.2 0.00 1.30 1.30 94 1008.5
20260506122917 12 0.0 1.6 0.00 1.30 1.30 93 1008.6
20260506121917 12 315 1.6 1.6 0.00 1.30 1.30 93 1008.5
20260506120937 12 293 3.2 6.4 0.00 1.30 1.30 94 1008.5
20260506115917 12 0.0 1.6 0.00 1.30 1.30 94 1008.5
20260506114937 12 0.0 1.6 0.00 1.30 1.30 94 1008.4
20260506113917 12 315 1.6 1.6 0.00 1.30 1.30 94 1008.2
20260506112917 12 270 1.6 3.2 0.00 1.30 1.30 94 1008.0
20260506111917 12 315 3.2 8.0 0.00 1.30 1.30 94 1008.0
20260506110917 12 315 1.6 4.8 0.00 1.30 1.30 94 1007.9
20260506105917 12 338 1.6 4.8 0.00 1.30 1.30 94 1007.9
20260506104917 12 315 1.6 1.6 0.00 1.30 1.30 94 1007.8
20260506103917 12 338 1.6 4.8 0.03 1.30 1.30 94 1007.7
20260506102917 12 293 6.4 9.7 0.05 1.30 1.30 94 1007.6
20260506101917 12 0.0 0.0 0.05 1.30 1.30 94 1007.5
20260506100917 12 270 3.2 6.4 0.05 1.30 1.30 94 1007.3
20260506095937 11 338 1.6 3.2 0.08 1.30 1.30 94 1007.3
20260506094917 11 23 1.6 4.8 0.10 1.30 1.30 94 1007.3
20260506093917 11 315 4.8 8.0 0.10 1.27 1.27 94 1007.1
20260506092917 11 338 1.6 3.2 0.08 1.27 1.27 94 1007.1
20260506091917 11 293 3.2 8.0 0.08 1.27 1.27 94 1007.0
20260506090917 11 293 1.6 1.6 0.10 1.24 1.24 94 1007.0
20260506085917 11 270 6.4 11.3 0.13 1.22 1.22 94 1006.9
20260506084916 11 315 4.8 8.0 0.13 1.19 1.19 94 1006.8
20260506083917 11 270 4.8 6.4 0.15 1.17 1.17 94 1006.7
20260506082917 11 315 3.2 6.4 0.18 1.17 1.17 94 1006.7
20260506081916 11 315 1.6 3.2 0.23 1.17 1.17 94 1006.7
20260506080916 11 338 4.8 9.7 0.23 1.14 1.14 94 1006.7
20260506072916 11 293 1.6 3.2 0.20 0.99 0.99 94 1006.3
20260506071917 11 315 1.6 3.2 0.15 0.94 0.94 94 1006.3
20260506070917 11 315 1.6 3.2 0.13 0.89 0.89 94 1006.2
20260506061916 11 0.0 1.6 0.05 0.79 0.79 93 1006.2
20260506060916 11 270 3.2 3.2 0.05 0.79 0.79 93 1006.1
20260506050916 12 315 4.8 8.0 0.05 0.74 0.74 93 1006.4
20260506044916 12 0.0 1.6 0.23 0.71 0.71 93 1006.4
20260506043937 12 0.0 1.6 0.33 0.71 0.71 93 1006.5
20260506042916 12 315 1.6 3.2 0.51 0.71 0.71 93 1006.5
20260506041916 12 315 1.6 4.8 0.56 0.69 0.69 93 1006.6
20260506040936 12 225 1.6 1.6 0.56 0.69 0.69 93 1006.7
20260506035916 12 0.0 1.6 0.51 0.61 0.61 93 1006.8
20260506034916 12 293 1.6 3.2 0.38 0.51 0.51 93 1006.8
20260506033916 12 0 1.6 3.2 0.23 0.36 0.36 92 1006.9
20260506032916 12 315 1.6 3.2 0.08 0.20 0.20 92 1007.0
20260506031916 12 0.0 1.6 0.03 0.13 0.13 92 1007.0
20260506030916 12 338 1.6 1.6 0.03 0.13 0.13 92 1007.1
20260506025916 12 315 3.2 4.8 0.03 0.13 0.13 92 1007.2
20260506024916 12 90 1.6 8.0 0.03 0.13 0.13 92 1007.2
20260506023916 12 338 1.6 3.2 0.03 0.13 0.13 92 1007.2
20260506022916 12 315 3.2 6.4 0.03 0.13 0.13 91 1007.3
20260506021916 12 315 1.6 1.6 0.03 0.10 0.10 91 1007.7
20260506020916 12 338 4.8 8.0 0.03 0.10 0.10 91 1007.7
20260506015916 12 270 1.6 3.2 0.05 0.10 0.10 91 1007.8
20260506014916 12 0.0 1.6 0.05 0.10 0.10 91 1007.8
20260506013916 12 315 1.6 1.6 0.05 0.10 0.10 91 1007.7
20260506012916 12 270 1.6 1.6 0.05 0.10 0.10 91 1007.8
20260506011916 12 293 1.6 3.2 0.05 0.08 0.08 91 1007.9
20260506010916 12 0.0 1.6 0.05 0.08 0.08 90 1008.0
20260506005916 12 270 1.6 3.2 0.05 0.05 0.05 90 1008.2
20260506004916 12 0 1.6 3.2 0.05 0.05 0.05 90 1008.3
20260506003916 12 315 1.6 1.6 0.05 0.05 0.05 90 1008.4
20260506003007 13 0.0 0.0 0.03 0.05 0.05 90 1008.4
20260506002830 13 0.0 0.0 0.03 0.05 0.05 90 1008.3
20260506002727 13 0.0 0.0 0.03 0.05 0.05 90 1008.3
20260506002530 13 0.0 0.0 0.03 0.05 0.05 90 1008.4
20260506002407 13 0.0 0.0 0.03 0.05 0.05 90 1008.4
20260506002230 13 0.0 0.0 0.03 0.05 0.05 90 1008.4
20260506002047 13 0.0 0.0 0.03 0.05 0.05 90 1008.5
20260506001911 13 0.0 0.0 0.03 0.05 0.05 90 1008.5
20260506001616 13 0.0 0.0 0.03 0.05 0.05 90 1008.6
20260506000716 13 0 4.8 4.8 0.00 0.03 0.03 89 1008.7
20260506000116 13 293 3.2 4.8 0.03 0.03 0.03 89 1008.7
20260505235116 13 270 1.6 3.2 0.03 0.03 0.03 89 1008.8
20260505234116 13 270 1.6 3.2 0.03 0.03 0.03 89 1008.8
20260505233219 13 293 1.6 1.6 0.03 0.03 0.03 89 1008.9
20260505233015 13 293 1.6 1.6 0.03 0.03 0.03 89 1008.9
20260505232036 13 0.0 0.0 0.03 0.03 0.03 88 1008.9